Date String (YYYY-MM-DD hh:mm:ss) UTC,Instrument flags,absolute air pressure of the measurement (hPa),sample flow rate (lpm),inlet stack bypass flow (lpm),air temperature of the measurement (°C),ambient temperature measured by the external sensor (°C),aerosol sample conditioner tube jacket temperature (°C),OPC LED temperature (°C),internal box temperature (°C),relative humidity of the measurement (%),span deviation,mass concentration of particles derived from Lorenz-Mie calculation of OPC scattering (μg/m³),mass concentration of particles derived from Lorenz-Mie calculation of OPC scattering (μg/m³),mass concentration of particles derived from Lorenz-Mie calculation of OPC scattering (μg/m³)
DateTimeUTC,F1_M11,P_M11,Q1_M11,Q2_M11,T1_M11,T2_M11,T3_M11,T4_M11,T5_M11,U1_M11,ZSPAN_M11,X2_M11,X0_M11,X1_M11
2023-08-11 08:00:00,SystemResetWarning,0829.5,5.01,000.00,029.3,026.9,000.0,037.9,030.8,20.6,0000.0,0004.66,0010.75,0004.09
2023-08-11 08:01:00,SystemResetWarning,0829.5,5.00,000.00,029.3,027.2,000.0,037.9,030.9,20.7,0000.0,0004.67,0011.35,0004.09
2023-08-11 08:02:00,SystemResetWarning,0829.5,5.00,000.00,029.3,027.4,000.0,037.9,030.9,20.7,0000.0,0004.66,0011.87,0004.09
2023-08-11 08:03:00,SystemResetWarning,0829.6,5.00,000.00,029.3,027.6,000.0,037.9,031.0,20.7,0000.0,0004.65,0011.84,0004.09
2023-08-11 08:04:00,SystemResetWarning,0829.6,5.00,000.00,029.4,027.8,000.0,037.9,031.0,20.7,0000.0,0004.62,0011.72,0004.09
2023-08-11 08:05:00,SystemResetWarning,0829.5,4.99,000.00,029.4,027.9,000.0,037.9,031.1,20.6,0000.0,0004.59,0011.53,0004.09
2023-08-11 08:06:00,SystemResetWarning,0829.5,5.00,000.00,029.4,028.0,000.0,037.9,031.1,20.5,0000.0,0004.60,0011.23,0004.09
2023-08-11 08:07:00,SystemResetWarning,0829.5,5.01,000.00,029.4,028.1,000.0,038.0,031.2,20.5,0000.0,0004.62,0011.21,0004.09
2023-08-11 08:08:00,SystemResetWarning,0829.5,5.01,000.00,029.5,028.2,000.0,038.0,031.2,20.5,0000.0,0004.62,0010.18,0004.09
2023-08-11 08:09:00,SystemResetWarning,0829.5,5.00,000.00,029.5,028.3,000.0,038.0,031.2,20.5,0000.0,0004.60,0009.84,0004.10
2023-08-11 08:10:00,SystemResetWarning,0829.5,5.00,000.00,029.5,028.4,000.0,038.0,031.2,20.4,0000.0,0004.63,0009.90,0004.11
2023-08-11 08:11:00,SystemResetWarning,0829.5,5.00,000.00,029.6,028.4,000.0,038.0,031.3,20.4,0000.0,0004.65,0009.62,0004.13
2023-08-11 08:12:00,SystemResetWarning,0829.5,4.99,000.00,029.6,028.1,000.0,038.0,031.3,20.4,0000.0,0004.66,0008.78,0004.13
2023-08-11 08:13:00,SystemResetWarning,0829.4,5.00,000.00,029.6,026.2,000.0,037.9,031.0,20.4,0000.0,0004.67,0008.30,0004.14
2023-08-11 08:14:00,SystemResetWarning,0829.4,5.00,000.00,029.5,025.5,000.0,037.8,030.8,20.5,0000.0,0004.65,0008.17,0004.14
2023-08-11 08:15:00,SystemResetWarning,0829.4,5.02,000.00,029.4,025.6,000.0,037.8,030.6,20.6,0000.0,0004.65,0008.14,0004.14
2023-08-11 08:16:00,SystemResetWarning,0829.4,5.00,000.00,029.3,025.9,000.0,037.8,030.6,20.7,0000.0,0004.65,0007.98,0004.15
2023-08-11 08:17:00,SystemResetWarning,0829.4,5.00,000.00,029.3,026.3,000.0,037.9,030.7,20.6,0000.0,0004.64,0007.76,0004.15
2023-08-11 08:18:00,SystemResetWarning,0829.4,5.00,000.00,029.3,026.7,000.0,037.9,030.8,20.7,0000.0,0004.67,0007.84,0004.14
2023-08-11 08:19:00,SystemResetWarning,0829.5,5.00,000.00,029.3,027.0,000.0,037.9,030.8,20.7,0000.0,0004.69,0007.99,0004.16
2023-08-11 08:20:00,SystemResetWarning,0829.5,5.00,000.00,029.3,027.3,000.0,037.9,030.9,20.8,0000.0,0004.70,0007.96,0004.17
2023-08-11 08:21:00,SystemResetWarning,0829.5,4.99,000.00,029.3,027.5,000.0,037.9,030.9,20.7,0000.0,0004.71,0007.95,0004.18
2023-08-11 08:22:00,SystemResetWarning,0829.5,5.00,000.00,029.3,027.7,000.0,037.9,031.0,20.7,0000.0,0004.72,0008.06,0004.18
2023-08-11 08:23:00,SystemResetWarning,0829.6,5.00,000.00,029.4,027.8,000.0,037.9,031.0,20.7,0000.0,0004.73,0008.52,0004.18
2023-08-11 08:24:00,SystemResetWarning,0829.6,5.00,000.00,029.4,028.0,000.0,037.9,031.1,20.7,0000.0,0004.73,0008.46,0004.18
2023-08-11 08:25:00,SystemResetWarning,0829.6,5.00,000.00,029.4,028.1,000.0,037.9,031.1,20.7,0000.0,0004.72,0009.08,0004.19
2023-08-11 08:26:00,SystemResetWarning,0829.6,5.01,000.00,029.4,028.1,000.0,038.0,031.1,20.6,0000.0,0004.73,0009.28,0004.20
2023-08-11 08:27:00,SystemResetWarning,0829.6,5.01,000.00,029.5,028.2,000.0,038.0,031.2,20.5,0000.0,0004.75,0009.55,0004.20
2023-08-11 08:28:00,SystemResetWarning,0829.7,5.00,000.00,029.5,028.3,000.0,038.0,031.2,20.6,0000.0,0004.76,0009.67,0004.21
2023-08-11 08:29:00,SystemResetWarning,0829.7,5.00,000.00,029.5,028.4,000.0,038.0,031.2,20.6,0000.0,0004.71,0009.56,0004.23
2023-08-11 08:30:00,SystemResetWarning,0829.7,5.00,000.00,029.6,028.4,000.0,038.1,031.3,20.2,0000.0,0004.68,0009.30,0004.23
2023-08-11 08:31:00,SystemResetWarning,0829.7,4.99,000.00,029.6,027.5,000.0,038.0,031.2,20.1,0000.0,0004.67,0009.28,0004.22
2023-08-11 08:32:00,SystemResetWarning,0829.7,5.00,000.00,029.5,025.8,000.0,037.9,030.9,20.1,0000.0,0004.67,0009.35,0004.22
2023-08-11 08:33:00,SystemResetWarning,0829.7,5.01,000.00,029.5,025.5,000.0,037.8,030.7,20.2,0000.0,0004.67,0009.26,0004.21
2023-08-11 08:34:00,SystemResetWarning,0829.6,5.00,000.00,029.4,025.7,000.0,037.8,030.6,20.4,0000.0,0004.67,0008.87,0004.22
2023-08-11 08:35:00,SystemResetWarning,0829.7,4.99,000.00,029.3,026.1,000.0,037.9,030.6,20.5,0000.0,0004.67,0008.88,0004.22
2023-08-11 08:36:00,SystemResetWarning,0829.7,5.00,000.00,029.3,026.5,000.0,037.9,030.7,20.6,0000.0,0004.73,0008.57,0004.23
2023-08-11 08:37:00,SystemResetWarning,0829.7,5.01,000.00,029.3,026.8,000.0,037.9,030.8,20.6,0000.0,0004.76,0008.24,0004.22
2023-08-11 08:38:00,SystemResetWarning,0829.7,5.00,000.00,029.3,027.1,000.0,037.9,030.8,20.5,0000.0,0004.74,0008.00,0004.22
2023-08-11 08:39:00,SystemResetWarning,0829.7,5.00,000.00,029.3,027.3,000.0,037.9,030.9,20.5,0000.0,0004.71,0007.73,0004.21
2023-08-11 08:40:00,SystemResetWarning,0829.7,5.00,000.00,029.3,027.5,000.0,037.9,031.0,20.4,0000.0,0004.72,0007.89,0004.21
2023-08-11 08:41:00,SystemResetWarning,0829.7,5.00,000.00,029.3,027.7,000.0,037.9,031.0,20.3,0000.0,0004.70,0009.36,0004.20
2023-08-11 08:42:00,SystemResetWarning,0829.7,5.00,000.00,029.4,027.9,000.0,037.9,031.1,20.3,0000.0,0004.69,0009.42,0004.19
2023-08-11 08:43:00,SystemResetWarning,0829.7,5.00,000.00,029.4,028.0,000.0,037.9,031.1,20.2,0000.0,0004.71,0009.80,0004.18
2023-08-11 08:44:00,SystemResetWarning,0829.7,5.00,000.00,029.4,028.1,000.0,038.0,031.1,20.0,0000.0,0004.71,0009.93,0004.17
2023-08-11 08:45:00,SystemResetWarning,0829.7,5.00,000.00,029.5,028.2,000.0,038.0,031.2,19.8,0000.0,0004.69,0010.27,0004.16
2023-08-11 08:46:00,SystemResetWarning,0829.7,5.00,000.00,029.5,028.3,000.0,038.0,031.2,19.8,0000.0,0004.69,0010.22,0004.15
2023-08-11 08:47:00,SystemResetWarning,0829.7,5.00,000.00,029.5,028.3,000.0,038.0,031.2,19.8,0000.0,0004.63,0010.12,0004.13
2023-08-11 08:48:00,SystemResetWarning,0829.7,5.00,000.00,029.6,028.4,000.0,038.0,031.3,19.8,0000.0,0004.58,0010.15,0004.14
2023-08-11 08:49:00,SystemResetWarning,0829.7,5.00,000.00,029.6,028.4,000.0,038.1,031.3,20.0,0000.0,0004.61,0010.29,0004.14
2023-08-11 08:50:00,SystemResetWarning,0829.7,5.00,000.00,029.6,028.0,000.0,038.0,031.2,20.0,0000.0,0004.62,0010.45,0004.14
2023-08-11 08:51:00,SystemResetWarning,0829.6,5.00,000.00,029.6,026.1,000.0,037.9,030.9,20.1,0000.0,0004.63,0010.46,0004.14
2023-08-11 08:52:00,SystemResetWarning,0829.7,5.01,000.00,029.5,025.5,000.0,037.8,030.8,20.1,0000.0,0004.63,0008.94,0004.13
2023-08-11 08:53:00,SystemResetWarning,0829.6,5.00,000.00,029.4,025.7,000.0,037.8,030.6,20.3,0000.0,0004.64,0008.75,0004.12
2023-08-11 08:54:00,SystemResetWarning,0829.7,5.00,000.00,029.3,026.0,000.0,037.9,030.6,20.3,0000.0,0004.57,0008.34,0004.11
2023-08-11 08:55:00,SystemResetWarning,0829.6,5.00,000.00,029.3,026.4,000.0,037.9,030.7,20.2,0000.0,0004.52,0008.55,0004.09
2023-08-11 08:56:00,SystemResetWarning,0829.7,5.00,000.00,029.3,026.8,000.0,037.9,030.8,20.3,0000.0,0004.53,0008.16,0004.09
2023-08-11 08:57:00,SystemResetWarning,0829.7,5.00,000.00,029.3,027.1,000.0,037.9,030.9,20.3,0000.0,0004.53,0008.19,0004.08
2023-08-11 08:58:00,SystemResetWarning,0829.7,5.00,000.00,029.3,027.3,000.0,037.9,030.9,20.3,0000.0,0004.54,0008.19,0004.09
2023-08-11 08:59:00,SystemResetWarning,0829.7,5.00,000.00,029.3,027.5,000.0,037.9,031.0,20.3,0000.0,0004.54,0008.07,0004.08
